Location: Unspecified
(0.0000°N, 0.0000°E)
Time: 16:23:37
(UTC+00:00)

A-11 Canister half - Pass Details

Date: 21 November 2019
Orbit: 1526 x 1683 km, 47.3° (Epoch: 12 December)

Event Time Altitude Azimuth Distance (km) Brightness Sun altitude
Rises 05:26:06 0° 183° (S) 4,875 11.9 -4.6°
Reaches altitude 10° 05:34:03 10° 144° (SE) 3,923 12.2 -2.7°
Maximum altitude 05:35:19 10° 136° (SE) 3,906 12.4 -2.5°
Drops below altitude 10° 05:36:35 10° 129° (SE) 3,931 12.7 -2.2°
Sets 05:44:30 0° 91° (E) 4,930 13.3 -0.3°
